Year,Month,Day,Hour,Minute,Value (Times are PST for temperature in C)
2021,07,30,00,00,19.90
2021,07,30,00,01,19.90
2021,07,30,00,02,19.80
2021,07,30,00,03,19.80
2021,07,30,00,04,19.80
2021,07,30,00,05,19.80
2021,07,30,00,06,19.80
2021,07,30,00,07,19.70
2021,07,30,00,08,19.70
2021,07,30,00,09,19.70
2021,07,30,00,10,19.70
2021,07,30,00,11,19.70
2021,07,30,00,12,19.70
2021,07,30,00,13,19.60
2021,07,30,00,14,19.60
2021,07,30,00,15,19.60
2021,07,30,00,16,19.60
2021,07,30,00,17,19.50
2021,07,30,00,18,19.50
2021,07,30,00,19,19.50
2021,07,30,00,20,19.40
2021,07,30,00,21,19.40
2021,07,30,00,22,19.40
2021,07,30,00,23,19.40
2021,07,30,00,24,19.40
2021,07,30,00,25,19.40
2021,07,30,00,26,19.30
2021,07,30,00,27,19.30
2021,07,30,00,28,19.30
2021,07,30,00,29,19.30
2021,07,30,00,30,19.30
2021,07,30,00,31,19.30
2021,07,30,00,32,19.30
2021,07,30,00,33,19.30
2021,07,30,00,34,19.30
2021,07,30,00,35,19.30
2021,07,30,00,36,19.20
2021,07,30,00,37,19.20
2021,07,30,00,38,19.20
2021,07,30,00,39,19.20
2021,07,30,00,40,19.20
2021,07,30,00,41,19.20
2021,07,30,00,42,19.10
2021,07,30,00,43,19.10
2021,07,30,00,44,19.10
2021,07,30,00,45,19.10
2021,07,30,00,46,19.10
2021,07,30,00,47,19.10
2021,07,30,00,48,19.10
2021,07,30,00,49,19.10
2021,07,30,00,50,19.00
2021,07,30,00,51,19.00
2021,07,30,00,52,19.00
2021,07,30,00,53,19.00
2021,07,30,00,54,18.90
2021,07,30,00,55,18.90
2021,07,30,00,56,18.90
2021,07,30,00,57,18.80
2021,07,30,00,58,18.80
2021,07,30,00,59,18.80
2021,07,30,01,00,18.80
2021,07,30,01,01,18.70
2021,07,30,01,02,18.70
2021,07,30,01,03,18.70
2021,07,30,01,04,18.70
2021,07,30,01,05,18.60
2021,07,30,01,06,18.60
2021,07,30,01,07,18.60
2021,07,30,01,08,18.60
2021,07,30,01,09,18.60
2021,07,30,01,10,18.60
2021,07,30,01,11,18.60
2021,07,30,01,12,18.60
2021,07,30,01,13,18.60
2021,07,30,01,14,18.50
2021,07,30,01,15,18.50
2021,07,30,01,16,18.50
2021,07,30,01,17,18.50
2021,07,30,01,18,18.50
2021,07,30,01,19,18.50
2021,07,30,01,20,18.40
2021,07,30,01,21,18.40
2021,07,30,01,22,18.40
2021,07,30,01,23,18.30
2021,07,30,01,24,18.30
2021,07,30,01,25,18.30
2021,07,30,01,26,18.30
2021,07,30,01,27,18.30
2021,07,30,01,28,18.30
2021,07,30,01,29,18.30
2021,07,30,01,30,18.30
2021,07,30,01,31,18.20
2021,07,30,01,32,18.20
2021,07,30,01,33,18.20
2021,07,30,01,34,18.20
2021,07,30,01,35,18.20
2021,07,30,01,36,18.20
2021,07,30,01,37,18.20
2021,07,30,01,38,18.20
2021,07,30,01,39,18.20
2021,07,30,01,40,18.20
2021,07,30,01,41,18.20
2021,07,30,01,42,18.20
2021,07,30,01,43,18.20
2021,07,30,01,44,18.20
2021,07,30,01,45,18.20
2021,07,30,01,46,18.20
2021,07,30,01,47,18.20
2021,07,30,01,48,18.20
2021,07,30,01,49,18.20
2021,07,30,01,50,18.10
2021,07,30,01,51,18.10
2021,07,30,01,52,18.10
2021,07,30,01,53,18.10
2021,07,30,01,54,18.10
2021,07,30,01,55,18.10
2021,07,30,01,56,18.00
2021,07,30,01,57,18.00
2021,07,30,01,58,18.00
2021,07,30,01,59,18.00
2021,07,30,02,00,17.90
2021,07,30,02,01,17.90
2021,07,30,02,02,17.90
2021,07,30,02,03,17.80
2021,07,30,02,04,17.80
2021,07,30,02,05,17.80
2021,07,30,02,06,17.80
2021,07,30,02,07,17.70
2021,07,30,02,08,17.70
2021,07,30,02,09,17.70
2021,07,30,02,10,17.70
2021,07,30,02,11,17.60
2021,07,30,02,12,17.60
2021,07,30,02,13,17.60
2021,07,30,02,14,17.60
2021,07,30,02,15,17.60
2021,07,30,02,16,17.50
2021,07,30,02,17,17.50
2021,07,30,02,18,17.50
2021,07,30,02,19,17.50
2021,07,30,02,20,17.40
2021,07,30,02,21,17.40
2021,07,30,02,22,17.40
2021,07,30,02,23,17.40
2021,07,30,02,24,17.30
2021,07,30,02,25,17.30
2021,07,30,02,26,17.30
2021,07,30,02,27,17.30
2021,07,30,02,28,17.30
2021,07,30,02,29,17.30
2021,07,30,02,30,17.30
2021,07,30,02,31,17.30
2021,07,30,02,32,17.30
2021,07,30,02,33,17.30
2021,07,30,02,34,17.30
2021,07,30,02,35,17.30
2021,07,30,02,36,17.30
2021,07,30,02,37,17.30
2021,07,30,02,38,17.30
2021,07,30,02,39,17.30
2021,07,30,02,40,17.30
2021,07,30,02,41,17.30
2021,07,30,02,42,17.30
2021,07,30,02,43,17.30
2021,07,30,02,44,17.20
2021,07,30,02,45,17.20
2021,07,30,02,46,17.20
2021,07,30,02,47,17.20
2021,07,30,02,48,17.20
2021,07,30,02,49,17.10
2021,07,30,02,50,17.10
2021,07,30,02,51,17.10
2021,07,30,02,52,17.00
2021,07,30,02,53,17.00
2021,07,30,02,54,17.00
2021,07,30,02,55,17.00
2021,07,30,02,56,17.00
2021,07,30,02,57,16.90
2021,07,30,02,58,16.90
2021,07,30,02,59,16.90
2021,07,30,03,00,16.90
2021,07,30,03,01,16.90
2021,07,30,03,02,16.90
2021,07,30,03,03,16.90
2021,07,30,03,04,16.90
2021,07,30,03,05,16.90
2021,07,30,03,06,17.00
2021,07,30,03,07,16.90
2021,07,30,03,08,16.90
2021,07,30,03,09,16.90
2021,07,30,03,10,17.00
2021,07,30,03,11,16.90
2021,07,30,03,12,17.00
2021,07,30,03,13,16.90
2021,07,30,03,14,16.90
2021,07,30,03,15,16.90
2021,07,30,03,16,16.90
2021,07,30,03,17,16.90
2021,07,30,03,18,16.90
2021,07,30,03,19,16.90
2021,07,30,03,20,16.90
2021,07,30,03,21,16.90
2021,07,30,03,22,16.90
2021,07,30,03,23,16.90
2021,07,30,03,24,16.90
2021,07,30,03,25,16.90
2021,07,30,03,26,16.90
2021,07,30,03,27,16.90
2021,07,30,03,28,16.90
2021,07,30,03,29,16.90
2021,07,30,03,30,16.90
2021,07,30,03,31,16.90
2021,07,30,03,32,16.90
2021,07,30,03,33,16.90
2021,07,30,03,34,16.80
2021,07,30,03,35,16.80
2021,07,30,03,36,16.80
2021,07,30,03,37,16.80
2021,07,30,03,38,16.80
2021,07,30,03,39,16.80
2021,07,30,03,40,16.80
2021,07,30,03,41,16.80
2021,07,30,03,42,16.80
2021,07,30,03,43,16.80
2021,07,30,03,44,16.80
2021,07,30,03,45,16.80
2021,07,30,03,46,16.80
2021,07,30,03,47,16.80
2021,07,30,03,48,16.80
2021,07,30,03,49,16.80
2021,07,30,03,50,16.80
2021,07,30,03,51,16.80
2021,07,30,03,52,16.80
2021,07,30,03,53,16.80
2021,07,30,03,54,16.80
2021,07,30,03,55,16.80
2021,07,30,03,56,16.80
2021,07,30,03,57,16.80
2021,07,30,03,58,16.80
2021,07,30,03,59,16.80
2021,07,30,04,00,16.80
2021,07,30,04,01,16.80
2021,07,30,04,02,16.80
2021,07,30,04,03,16.80
2021,07,30,04,04,16.90
2021,07,30,04,05,16.90
2021,07,30,04,06,16.90
2021,07,30,04,07,16.90
2021,07,30,04,08,16.90
2021,07,30,04,09,16.90
2021,07,30,04,10,16.90
2021,07,30,04,11,16.90
2021,07,30,04,12,16.90
2021,07,30,04,13,16.90
2021,07,30,04,14,16.90
2021,07,30,04,15,16.90
2021,07,30,04,16,16.90
2021,07,30,04,17,16.90
2021,07,30,04,18,16.90
2021,07,30,04,19,16.90
2021,07,30,04,20,16.90
2021,07,30,04,21,16.90
2021,07,30,04,22,16.90
2021,07,30,04,23,16.90
2021,07,30,04,24,16.90
2021,07,30,04,25,17.00
2021,07,30,04,26,17.00
2021,07,30,04,27,17.00
2021,07,30,04,28,17.10
2021,07,30,04,29,17.20
2021,07,30,04,30,17.30
2021,07,30,04,31,17.50
2021,07,30,04,32,17.70
2021,07,30,04,33,18.00
2021,07,30,04,34,18.30
2021,07,30,04,35,18.70
2021,07,30,04,36,18.90
2021,07,30,04,37,19.10
2021,07,30,04,38,19.30
2021,07,30,04,39,19.50
2021,07,30,04,40,19.60
2021,07,30,04,41,19.70
2021,07,30,04,42,19.80
2021,07,30,04,43,20.00
2021,07,30,04,44,20.10
2021,07,30,04,45,20.30
2021,07,30,04,46,20.40
2021,07,30,04,47,20.50
2021,07,30,04,48,20.60
2021,07,30,04,49,20.60
2021,07,30,04,50,20.70
2021,07,30,04,51,20.70
2021,07,30,04,52,20.70
2021,07,30,04,53,20.70
2021,07,30,04,54,20.70
2021,07,30,04,55,20.80
2021,07,30,04,56,20.80
2021,07,30,04,57,20.80
2021,07,30,04,58,20.70
2021,07,30,04,59,20.70
2021,07,30,05,00,20.60
2021,07,30,05,01,20.60
2021,07,30,05,02,20.60
2021,07,30,05,03,20.50
2021,07,30,05,04,20.50
2021,07,30,05,05,20.50
2021,07,30,05,06,20.40
2021,07,30,05,07,20.30
2021,07,30,05,08,20.30
2021,07,30,05,09,20.20
2021,07,30,05,10,20.20
2021,07,30,05,11,20.20
2021,07,30,05,12,20.20
2021,07,30,05,13,20.20
2021,07,30,05,14,20.20
2021,07,30,05,15,20.30
2021,07,30,05,16,20.30
2021,07,30,05,17,20.30
2021,07,30,05,18,20.30
2021,07,30,05,19,20.30
2021,07,30,05,20,20.30
2021,07,30,05,21,20.20
2021,07,30,05,22,20.10
2021,07,30,05,23,20.00
2021,07,30,05,24,19.90
2021,07,30,05,25,19.80
2021,07,30,05,26,19.80
2021,07,30,05,27,19.70
2021,07,30,05,28,19.60
2021,07,30,05,29,19.50
2021,07,30,05,30,19.40
2021,07,30,05,31,19.30
2021,07,30,05,32,19.10
2021,07,30,05,33,19.00
2021,07,30,05,34,18.90
2021,07,30,05,35,18.80
2021,07,30,05,36,18.70
2021,07,30,05,37,18.70
2021,07,30,05,38,18.70
2021,07,30,05,39,18.70
2021,07,30,05,40,18.70
2021,07,30,05,41,18.70
2021,07,30,05,42,18.80
2021,07,30,05,43,18.80
2021,07,30,05,44,18.90
2021,07,30,05,45,18.90
2021,07,30,05,46,18.90
2021,07,30,05,47,18.90
2021,07,30,05,48,18.90
2021,07,30,05,49,18.90
2021,07,30,05,50,18.80
2021,07,30,05,51,18.80
2021,07,30,05,52,18.80
2021,07,30,05,53,18.70
2021,07,30,05,54,18.70
2021,07,30,05,55,18.60
2021,07,30,05,56,18.60
2021,07,30,05,57,18.50
2021,07,30,05,58,18.50
2021,07,30,05,59,18.50
2021,07,30,06,00,18.50
2021,07,30,06,01,18.50
2021,07,30,06,02,18.40
2021,07,30,06,03,18.40
2021,07,30,06,04,18.40
2021,07,30,06,05,18.30
2021,07,30,06,06,18.30
2021,07,30,06,07,18.30
2021,07,30,06,08,18.30
2021,07,30,06,09,18.30
2021,07,30,06,10,18.20
2021,07,30,06,11,18.20
2021,07,30,06,12,18.20
2021,07,30,06,13,18.20
2021,07,30,06,14,18.20
2021,07,30,06,15,18.20
2021,07,30,06,16,18.10
2021,07,30,06,17,18.10
2021,07,30,06,18,18.10
2021,07,30,06,19,18.10
2021,07,30,06,20,18.10
2021,07,30,06,21,18.00
2021,07,30,06,22,18.00
2021,07,30,06,23,18.00
2021,07,30,06,24,17.90
2021,07,30,06,25,17.90
2021,07,30,06,26,17.90
2021,07,30,06,27,17.90
2021,07,30,06,28,17.90
2021,07,30,06,29,17.80
2021,07,30,06,30,17.80
2021,07,30,06,31,17.80
2021,07,30,06,32,17.80
2021,07,30,06,33,17.80
2021,07,30,06,34,17.80
2021,07,30,06,35,17.70
2021,07,30,06,36,17.70
2021,07,30,06,37,17.70
2021,07,30,06,38,17.70
2021,07,30,06,39,17.60
2021,07,30,06,40,17.60
2021,07,30,06,41,17.60
2021,07,30,06,42,17.60
2021,07,30,06,43,17.50
2021,07,30,06,44,17.50
2021,07,30,06,45,17.50
2021,07,30,06,46,17.50
2021,07,30,06,47,17.50
2021,07,30,06,48,17.40
2021,07,30,06,49,17.40
2021,07,30,06,50,17.40
2021,07,30,06,51,17.40
2021,07,30,06,52,17.40
2021,07,30,06,53,17.40
2021,07,30,06,54,17.30
2021,07,30,06,55,17.30
2021,07,30,06,56,17.30
2021,07,30,06,57,17.30
2021,07,30,06,58,17.20
2021,07,30,06,59,17.20
2021,07,30,07,00,17.20
2021,07,30,07,01,17.20
2021,07,30,07,02,17.20
2021,07,30,07,03,17.20
2021,07,30,07,04,17.20
2021,07,30,07,05,17.20
2021,07,30,07,06,17.20
2021,07,30,07,07,17.20
2021,07,30,07,08,17.30
2021,07,30,07,09,17.30
2021,07,30,07,10,17.30
2021,07,30,07,11,17.30
2021,07,30,07,12,17.30
2021,07,30,07,13,17.30
2021,07,30,07,14,17.30
2021,07,30,07,15,17.30
2021,07,30,07,16,17.40
2021,07,30,07,17,17.40
2021,07,30,07,18,17.50
2021,07,30,07,19,17.60
2021,07,30,07,20,17.60
2021,07,30,07,21,17.60
2021,07,30,07,22,17.70
2021,07,30,07,23,17.70
2021,07,30,07,24,17.70
2021,07,30,07,25,17.80
2021,07,30,07,26,17.80
2021,07,30,07,27,17.80
2021,07,30,07,28,17.90
2021,07,30,07,29,18.10
2021,07,30,07,30,18.30
2021,07,30,07,31,18.40
2021,07,30,07,32,18.50
2021,07,30,07,33,18.60
2021,07,30,07,34,18.80
2021,07,30,07,35,18.90
2021,07,30,07,36,19.00
2021,07,30,07,37,19.10
2021,07,30,07,38,19.20
2021,07,30,07,39,19.40
2021,07,30,07,40,19.60
2021,07,30,07,41,19.70
2021,07,30,07,42,19.80
2021,07,30,07,43,19.90
2021,07,30,07,44,19.90
2021,07,30,07,45,19.90
2021,07,30,07,46,20.00
2021,07,30,07,47,20.00
2021,07,30,07,48,20.10
2021,07,30,07,49,20.10
2021,07,30,07,50,20.20
2021,07,30,07,51,20.20
2021,07,30,07,52,20.30
2021,07,30,07,53,20.30
2021,07,30,07,54,20.30
2021,07,30,07,55,20.20
2021,07,30,07,56,20.20
2021,07,30,07,57,20.20
2021,07,30,07,58,20.10
2021,07,30,07,59,20.10
2021,07,30,08,00,20.10
2021,07,30,08,01,20.00
2021,07,30,08,02,20.00
2021,07,30,08,03,20.00
2021,07,30,08,04,20.00
2021,07,30,08,05,20.00
2021,07,30,08,06,20.10
2021,07,30,08,07,20.10
2021,07,30,08,08,20.20
2021,07,30,08,09,20.20
2021,07,30,08,10,20.20
2021,07,30,08,11,20.30
2021,07,30,08,12,20.30
2021,07,30,08,13,20.40
2021,07,30,08,14,20.40
2021,07,30,08,15,20.50
2021,07,30,08,16,20.60
2021,07,30,08,17,20.70
2021,07,30,08,18,20.80
2021,07,30,08,19,20.80
2021,07,30,08,20,20.90
2021,07,30,08,21,20.90
2021,07,30,08,22,21.00
2021,07,30,08,23,21.10
2021,07,30,08,24,21.10
2021,07,30,08,25,21.20
2021,07,30,08,26,21.20
2021,07,30,08,27,21.30
2021,07,30,08,28,21.30
2021,07,30,08,29,21.40
2021,07,30,08,30,21.40
2021,07,30,08,31,21.40
2021,07,30,08,32,21.40
2021,07,30,08,33,21.40
2021,07,30,08,34,21.50
2021,07,30,08,35,21.50
2021,07,30,08,36,21.50
2021,07,30,08,37,21.60
2021,07,30,08,38,21.60
2021,07,30,08,39,21.60
2021,07,30,08,40,21.60
2021,07,30,08,41,21.70
2021,07,30,08,42,21.70
2021,07,30,08,43,21.70
2021,07,30,08,44,21.80
2021,07,30,08,45,21.80
2021,07,30,08,46,21.80
2021,07,30,08,47,21.80
2021,07,30,08,48,21.80
2021,07,30,08,49,21.80
2021,07,30,08,50,21.80
2021,07,30,08,51,21.80
2021,07,30,08,52,21.80
2021,07,30,08,53,21.80
2021,07,30,08,54,21.90
2021,07,30,08,55,21.90
2021,07,30,08,56,21.80
2021,07,30,08,57,21.80
2021,07,30,08,58,21.70
2021,07,30,08,59,21.60
2021,07,30,09,00,21.50
2021,07,30,09,01,21.40
2021,07,30,09,02,21.40
2021,07,30,09,03,21.30
2021,07,30,09,04,21.30
2021,07,30,09,05,21.20
2021,07,30,09,06,21.10
2021,07,30,09,07,21.10
2021,07,30,09,08,21.10
2021,07,30,09,09,21.10
2021,07,30,09,10,21.10
2021,07,30,09,11,21.10
2021,07,30,09,12,21.20
2021,07,30,09,13,21.40
2021,07,30,09,14,21.50
2021,07,30,09,15,21.60
2021,07,30,09,16,21.80
2021,07,30,09,17,21.90
2021,07,30,09,18,22.00
2021,07,30,09,19,22.10
2021,07,30,09,20,22.20
2021,07,30,09,21,22.30
2021,07,30,09,22,22.30
2021,07,30,09,23,22.40
2021,07,30,09,24,22.50
2021,07,30,09,25,22.60
2021,07,30,09,26,22.60
2021,07,30,09,27,22.70
2021,07,30,09,28,22.70
2021,07,30,09,29,22.80
2021,07,30,09,30,22.80
2021,07,30,09,31,22.70
2021,07,30,09,32,22.70
2021,07,30,09,33,22.60
2021,07,30,09,34,22.50
2021,07,30,09,35,22.40
2021,07,30,09,36,22.30
2021,07,30,09,37,22.20
2021,07,30,09,38,22.10
2021,07,30,09,39,22.00
2021,07,30,09,40,21.90
2021,07,30,09,41,21.80
2021,07,30,09,42,21.80
2021,07,30,09,43,21.80
2021,07,30,09,44,21.70
2021,07,30,09,45,21.70
2021,07,30,09,46,21.70
2021,07,30,09,47,21.70
2021,07,30,09,48,21.70
2021,07,30,09,49,21.60
2021,07,30,09,50,21.60
2021,07,30,09,51,21.60
2021,07,30,09,52,21.60
2021,07,30,09,53,21.70
2021,07,30,09,54,21.80
2021,07,30,09,55,21.90
2021,07,30,09,56,21.90
2021,07,30,09,57,22.00
2021,07,30,09,58,22.00
2021,07,30,09,59,22.00
2021,07,30,10,00,22.00
2021,07,30,10,01,22.00
2021,07,30,10,02,22.10
2021,07,30,10,03,22.10
2021,07,30,10,04,22.10
2021,07,30,10,05,22.10
2021,07,30,10,06,22.10
2021,07,30,10,07,22.20
2021,07,30,10,08,22.30
2021,07,30,10,09,22.40
2021,07,30,10,10,22.50
2021,07,30,10,11,22.70
2021,07,30,10,12,22.90
2021,07,30,10,13,23.00
2021,07,30,10,14,23.10
2021,07,30,10,15,23.10
2021,07,30,10,16,23.20
2021,07,30,10,17,23.30
2021,07,30,10,18,23.40
2021,07,30,10,19,23.40
2021,07,30,10,20,23.50
2021,07,30,10,21,23.60
2021,07,30,10,22,23.60
2021,07,30,10,23,23.70
2021,07,30,10,24,23.80
2021,07,30,10,25,23.80
2021,07,30,10,26,23.90
2021,07,30,10,27,24.00
2021,07,30,10,28,24.20
2021,07,30,10,29,24.30
2021,07,30,10,30,24.40
2021,07,30,10,31,24.40
2021,07,30,10,32,24.50
2021,07,30,10,33,24.50
2021,07,30,10,34,24.60
2021,07,30,10,35,24.70
2021,07,30,10,36,24.70
2021,07,30,10,37,24.80
2021,07,30,10,38,24.80
2021,07,30,10,39,24.90
2021,07,30,10,40,24.90
2021,07,30,10,41,25.00
2021,07,30,10,42,25.00
2021,07,30,10,43,25.00
2021,07,30,10,44,25.00
2021,07,30,10,45,25.00
2021,07,30,10,46,25.00
2021,07,30,10,47,24.90
2021,07,30,10,48,24.90
2021,07,30,10,49,24.90
2021,07,30,10,50,24.80
2021,07,30,10,51,24.80
2021,07,30,10,52,24.80
2021,07,30,10,53,24.80
2021,07,30,10,54,24.80
2021,07,30,10,55,24.90
2021,07,30,10,56,24.90
2021,07,30,10,57,25.00
2021,07,30,10,58,25.00
2021,07,30,10,59,25.00
2021,07,30,11,00,25.10
2021,07,30,11,01,25.20
2021,07,30,11,02,25.20
2021,07,30,11,03,25.30
2021,07,30,11,04,25.30
2021,07,30,11,05,25.30
2021,07,30,11,06,25.30
2021,07,30,11,07,25.30
2021,07,30,11,08,25.10
2021,07,30,11,09,25.00
2021,07,30,11,10,25.00
2021,07,30,11,11,24.90
2021,07,30,11,12,24.90
2021,07,30,11,13,24.90
2021,07,30,11,14,24.90
2021,07,30,11,15,24.90
2021,07,30,11,16,25.00
2021,07,30,11,17,25.10
2021,07,30,11,18,25.20
2021,07,30,11,19,25.30
2021,07,30,11,20,25.30
2021,07,30,11,21,25.30
2021,07,30,11,22,25.30
2021,07,30,11,23,25.30
2021,07,30,11,24,25.40
2021,07,30,11,25,25.40
2021,07,30,11,26,25.40
2021,07,30,11,27,25.50
2021,07,30,11,28,25.50
2021,07,30,11,29,25.60
2021,07,30,11,30,25.60
2021,07,30,11,31,25.70
2021,07,30,11,32,25.70
2021,07,30,11,33,25.70
2021,07,30,11,34,25.70
2021,07,30,11,35,25.70
2021,07,30,11,36,25.80
2021,07,30,11,37,25.80
2021,07,30,11,38,25.80
2021,07,30,11,39,25.80
2021,07,30,11,40,25.70
2021,07,30,11,41,25.60
2021,07,30,11,42,25.50
2021,07,30,11,43,25.40
2021,07,30,11,44,25.40
2021,07,30,11,45,25.40
2021,07,30,11,46,25.40
2021,07,30,11,47,25.40
2021,07,30,11,48,25.50
2021,07,30,11,49,25.60
2021,07,30,11,50,25.70
2021,07,30,11,51,25.80
2021,07,30,11,52,25.90
2021,07,30,11,53,25.90
2021,07,30,11,54,26.00
2021,07,30,11,55,26.00
2021,07,30,11,56,25.90
2021,07,30,11,57,25.90
2021,07,30,11,58,26.00
2021,07,30,11,59,26.00
2021,07,30,12,00,26.00
2021,07,30,12,01,26.10
2021,07,30,12,02,26.10
2021,07,30,12,03,26.10
2021,07,30,12,04,26.20
2021,07,30,12,05,26.20
2021,07,30,12,06,26.10
2021,07,30,12,07,26.10
2021,07,30,12,08,26.10
2021,07,30,12,09,26.00
2021,07,30,12,10,25.90
2021,07,30,12,11,25.80
2021,07,30,12,12,25.80
2021,07,30,12,13,25.90
2021,07,30,12,14,25.90
2021,07,30,12,15,25.90
2021,07,30,12,16,25.90
2021,07,30,12,17,25.90
2021,07,30,12,18,26.00
2021,07,30,12,19,26.00
2021,07,30,12,20,26.10
2021,07,30,12,21,26.20
2021,07,30,12,22,26.20
2021,07,30,12,23,26.10
2021,07,30,12,24,26.20
2021,07,30,12,25,26.20
2021,07,30,12,26,26.30
2021,07,30,12,27,26.30
2021,07,30,12,28,26.30
2021,07,30,12,29,26.30
2021,07,30,12,30,26.30
2021,07,30,12,31,26.30
2021,07,30,12,32,26.30
2021,07,30,12,33,26.40
2021,07,30,12,34,26.50
2021,07,30,12,35,26.60
2021,07,30,12,36,26.70
2021,07,30,12,37,26.80
2021,07,30,12,38,26.90
2021,07,30,12,39,26.90
2021,07,30,12,40,26.90
2021,07,30,12,41,27.00
2021,07,30,12,42,27.00
2021,07,30,12,43,27.00
2021,07,30,12,44,27.00
2021,07,30,12,45,27.10
2021,07,30,12,46,27.20
2021,07,30,12,47,27.20
2021,07,30,12,48,27.30
2021,07,30,12,49,27.20
2021,07,30,12,50,27.10
2021,07,30,12,51,27.10
2021,07,30,12,52,27.10
2021,07,30,12,53,27.10
2021,07,30,12,54,27.10
2021,07,30,12,55,27.20
2021,07,30,12,56,27.20
2021,07,30,12,57,27.30
2021,07,30,12,58,27.30
2021,07,30,12,59,27.40
2021,07,30,13,00,27.50
2021,07,30,13,01,27.60
2021,07,30,13,02,27.80
2021,07,30,13,03,27.90
2021,07,30,13,04,27.90
2021,07,30,13,05,27.90
2021,07,30,13,06,28.00
2021,07,30,13,07,28.00
2021,07,30,13,08,27.90
2021,07,30,13,09,27.90
2021,07,30,13,10,27.80
2021,07,30,13,11,27.80
2021,07,30,13,12,27.70
2021,07,30,13,13,27.70
2021,07,30,13,14,27.70
2021,07,30,13,15,27.80
2021,07,30,13,16,27.80
2021,07,30,13,17,27.90
2021,07,30,13,18,28.00
2021,07,30,13,19,28.10
2021,07,30,13,20,28.10
2021,07,30,13,21,28.20
2021,07,30,13,22,28.20
2021,07,30,13,23,28.30
2021,07,30,13,24,28.30
2021,07,30,13,25,28.30
2021,07,30,13,26,28.40
2021,07,30,13,27,28.40
2021,07,30,13,28,28.30
2021,07,30,13,29,28.30
2021,07,30,13,30,28.20
2021,07,30,13,31,28.20
2021,07,30,13,32,28.20
2021,07,30,13,33,28.20
2021,07,30,13,34,28.30
2021,07,30,13,35,28.30
2021,07,30,13,36,28.30
2021,07,30,13,37,28.30
2021,07,30,13,38,28.40
2021,07,30,13,39,28.50
2021,07,30,13,40,28.60
2021,07,30,13,41,28.70
2021,07,30,13,42,28.70
2021,07,30,13,43,28.80
2021,07,30,13,44,28.80
2021,07,30,13,45,28.80
2021,07,30,13,46,28.70
2021,07,30,13,47,28.80
2021,07,30,13,48,28.80
2021,07,30,13,49,28.90
2021,07,30,13,50,28.90
2021,07,30,13,51,28.90
2021,07,30,13,52,28.90
2021,07,30,13,53,28.80
2021,07,30,13,54,28.90
2021,07,30,13,55,29.00
2021,07,30,13,56,29.10
2021,07,30,13,57,29.00
2021,07,30,13,58,29.00
2021,07,30,13,59,29.00
2021,07,30,14,00,29.00
2021,07,30,14,01,29.00
2021,07,30,14,02,29.00
2021,07,30,14,03,29.00
2021,07,30,14,04,29.10
2021,07,30,14,05,29.10
2021,07,30,14,06,29.10
2021,07,30,14,07,29.10
2021,07,30,14,08,29.20
2021,07,30,14,09,29.30
2021,07,30,14,10,29.30
2021,07,30,14,11,29.30
2021,07,30,14,12,29.30
2021,07,30,14,13,29.30
2021,07,30,14,14,29.30
2021,07,30,14,15,29.40
2021,07,30,14,16,29.50
2021,07,30,14,17,29.50
2021,07,30,14,18,29.60
2021,07,30,14,19,29.60
2021,07,30,14,20,29.60
2021,07,30,14,21,29.60
2021,07,30,14,22,29.60
2021,07,30,14,23,29.50
2021,07,30,14,24,29.50
2021,07,30,14,25,29.50
2021,07,30,14,26,29.60
2021,07,30,14,27,29.60
2021,07,30,14,28,29.70
2021,07,30,14,29,29.70
2021,07,30,14,30,29.70
2021,07,30,14,31,29.80
2021,07,30,14,32,29.90
2021,07,30,14,33,29.90
2021,07,30,14,34,29.90
2021,07,30,14,35,30.00
2021,07,30,14,36,30.10
2021,07,30,14,37,30.20
2021,07,30,14,38,30.20
2021,07,30,14,39,30.30
2021,07,30,14,40,30.30
2021,07,30,14,41,30.40
2021,07,30,14,42,30.40
2021,07,30,14,43,30.40
2021,07,30,14,44,30.40
2021,07,30,14,45,30.30
2021,07,30,14,46,30.40
2021,07,30,14,47,30.50
2021,07,30,14,48,30.50
2021,07,30,14,49,30.50
2021,07,30,14,50,30.50
2021,07,30,14,51,30.40
2021,07,30,14,52,30.40
2021,07,30,14,53,30.40
2021,07,30,14,54,30.40
2021,07,30,14,55,30.40
2021,07,30,14,56,30.40
2021,07,30,14,57,30.50
2021,07,30,14,58,30.50
2021,07,30,14,59,30.50
2021,07,30,15,00,30.40
2021,07,30,15,01,30.40
2021,07,30,15,02,30.40
2021,07,30,15,03,30.30
2021,07,30,15,04,30.30
2021,07,30,15,05,30.30
2021,07,30,15,06,30.30
2021,07,30,15,07,30.40
2021,07,30,15,08,30.40
2021,07,30,15,09,30.50
2021,07,30,15,10,30.60
2021,07,30,15,11,30.60
2021,07,30,15,12,30.70
2021,07,30,15,13,30.80
2021,07,30,15,14,30.80
2021,07,30,15,15,30.80
2021,07,30,15,16,30.80
2021,07,30,15,17,30.80
2021,07,30,15,18,30.90
2021,07,30,15,19,30.90
2021,07,30,15,20,31.00
2021,07,30,15,21,31.10
2021,07,30,15,22,31.10
2021,07,30,15,23,31.20
2021,07,30,15,24,31.20
2021,07,30,15,25,31.20
2021,07,30,15,26,31.20
2021,07,30,15,27,31.20
2021,07,30,15,28,31.20
2021,07,30,15,29,31.20
2021,07,30,15,30,31.20
2021,07,30,15,31,31.20
2021,07,30,15,32,31.20
2021,07,30,15,33,31.30
2021,07,30,15,34,31.40
2021,07,30,15,35,31.40
2021,07,30,15,36,31.50
2021,07,30,15,37,31.60
2021,07,30,15,38,31.60
2021,07,30,15,39,31.60
2021,07,30,15,40,31.70
2021,07,30,15,41,31.80
2021,07,30,15,42,31.80
2021,07,30,15,43,31.90
2021,07,30,15,44,31.90
2021,07,30,15,45,32.00
2021,07,30,15,46,32.10
2021,07,30,15,47,32.20
2021,07,30,15,48,32.20
2021,07,30,15,49,32.20
2021,07,30,15,50,32.20
2021,07,30,15,51,32.20
2021,07,30,15,52,32.10
2021,07,30,15,53,32.10
2021,07,30,15,54,32.20
2021,07,30,15,55,32.20
2021,07,30,15,56,32.10
2021,07,30,15,57,32.10
2021,07,30,15,58,32.10
2021,07,30,15,59,32.10
2021,07,30,16,00,32.20
2021,07,30,16,01,32.20
2021,07,30,16,02,32.20
2021,07,30,16,03,32.20
2021,07,30,16,04,32.30
2021,07,30,16,05,32.30
2021,07,30,16,06,32.30
2021,07,30,16,07,32.40
2021,07,30,16,08,32.40
2021,07,30,16,09,32.40
2021,07,30,16,10,32.40
2021,07,30,16,11,32.40
2021,07,30,16,12,32.30
2021,07,30,16,13,32.30
2021,07,30,16,14,32.30
2021,07,30,16,15,32.30
2021,07,30,16,16,32.30
2021,07,30,16,17,32.30
2021,07,30,16,18,32.30
2021,07,30,16,19,32.30
2021,07,30,16,20,32.30
2021,07,30,16,21,32.30
2021,07,30,16,22,32.30
2021,07,30,16,23,32.20
2021,07,30,16,24,32.20
2021,07,30,16,25,32.20
2021,07,30,16,26,32.20
2021,07,30,16,27,32.10
2021,07,30,16,28,32.00
2021,07,30,16,29,32.00
2021,07,30,16,30,32.00
2021,07,30,16,31,31.90
2021,07,30,16,32,32.00
2021,07,30,16,33,32.00
2021,07,30,16,34,32.10
2021,07,30,16,35,32.10
2021,07,30,16,36,32.10
2021,07,30,16,37,32.10
2021,07,30,16,38,32.10
2021,07,30,16,39,32.20
2021,07,30,16,40,32.40
2021,07,30,16,41,32.50
2021,07,30,16,42,32.60
2021,07,30,16,43,32.70
2021,07,30,16,44,32.70
2021,07,30,16,45,32.80
2021,07,30,16,46,32.80
2021,07,30,16,47,32.90
2021,07,30,16,48,33.00
2021,07,30,16,49,33.00
2021,07,30,16,50,33.00
2021,07,30,16,51,33.00
2021,07,30,16,52,33.00
2021,07,30,16,53,32.90
2021,07,30,16,54,32.90
2021,07,30,16,55,32.90
2021,07,30,16,56,32.90
2021,07,30,16,57,32.90
2021,07,30,16,58,32.90
2021,07,30,16,59,32.90
2021,07,30,17,00,32.90
2021,07,30,17,01,32.90
2021,07,30,17,02,32.90
2021,07,30,17,03,32.90
2021,07,30,17,04,32.90
2021,07,30,17,05,32.90
2021,07,30,17,06,32.90
2021,07,30,17,07,32.90
2021,07,30,17,08,33.00
2021,07,30,17,09,33.00
2021,07,30,17,10,33.00
2021,07,30,17,11,32.90
2021,07,30,17,12,33.00
2021,07,30,17,13,33.00
2021,07,30,17,14,33.00
2021,07,30,17,15,33.10
2021,07,30,17,16,33.10
2021,07,30,17,17,33.20
2021,07,30,17,18,33.20
2021,07,30,17,19,33.10